Вернуться в каталог

USA 56

АктивенВоенныеPO
NORAD 20560·PAYLOAD·🇺🇸 United States

Запущен Apr 11, 1990 с Vandenberg Space Force Base

Loading…

Ближайшие Пролёты (ближайшие 24 часа)

TLE

СвежийSource: Space-Track

Эпоха: Sep 14, 2026, 11:12 UTC

1 20560U 90031A   26257.46682952  .00000646  00000-0  85363-4 0  9995
2 20560  89.8560 259.4776 0058727 311.2754  48.3418 14.77791008125889

Отслеживайте USA 56 в реальном времени с AllMySat

Download on the App Store